Temperature
14 12 12 13 14 14 15 15 15 16 16 16 15 15 16 17 16 16 18 19 20 20 21 21 21 20 20 19 18 18 17 16 15 14 13 12 12 12 11 11 11 11 10 10
12 12 14 14 14 14 14 14 15 15 16 16 15 14 15 15 15 17 18 19 20 20 21 21 21 20 20 19 19 18 17 16 15 15 14 13 12 12 11 11 11 10 10 10
12 13 14 14 14 14 14 14 14 15 16 16 15 14 15 15 16 17 18 19 19 20 20 20 20 20 20 19 19 18 17 17 16 15 14 12 12 11 11 11 11 10 10 10
12 14 14 14 14 14 14 15 15 15 14 13 15 13 14 14 15 16 17 18 19 20 20 20 20 20 19 19 19 18 17 17 16 15 14 13 12 12 11 11 11 10 10 10
12 13 13 14 14 15 14 15 15 15 14 13 13 13 13 14 15 16 16 18 19 19 19 20 20 19 19 19 18 18 17 16 15 14 14 13 12 12 12 11 11 10 10 10
12 13 14 14 15 15 15 15 14 12 12 12 12 12 12 13 15 16 16 17 19 19 19 19 19 19 18 18 17 17 16 16 15 14 14 13 13 12 11 11 11 10 10 10
12 13 13 14 14 14 14 13 12 12 11 11 12 12 13 14 15 15 16 17 18 18 18 18 18 18 18 17 17 16 16 15 15 14 13 13 12 12 11 11 11 10 10 10
10 11 13 13 14 13 13 14 12 12 11 11 12 12 13 15 15 16 17 18 18 18 18 18 18 18 17 17 16 16 15 15 14 14 13 13 12 11 11 11 11 10 10 10
11 11 13 13 14 14 13 13 13 12 11 12 11 12 13 15 15 14 15 16 17 18 18 18 17 17 17 16 16 15 15 14 14 13 13 12 12 11 11 10 10 10 10 10
11 11 12 13 14 14 13 13 12 11 11 11 12 12 13 15 14 14 13 14 17 17 17 17 17 17 16 16 15 15 14 14 14 13 13 12 12 11 11 10 10 10 10 10
11 11 11 12 13 12 12 13 12 11 10 11 11 12 14 15 14 14 13 15 17 18 18 17 17 16 16 15 15 15 14 14 13 13 12 12 11 11 10 10 10 10 10 9
11 11 11 11 13 14 13 12 12 12 10 10 10 12 14 14 14 14 14 16 17 18 18 17 17 16 16 15 15 14 14 14 13 13 12 12 11 10 10 10 9 9 9 9
10 10 10 11 12 12 12 12 12 12 11 9 10 13 14 13 13 14 15 17 17 17 17 17 16 16 16 15 15 14 14 13 13 12 12 11 11 10 10 9 9 9 9 9
10 9 10 11 11 11 11 12 12 12 12 10 11 13 15 14 13 13 15 16 17 17 17 17 17 16 16 15 15 14 14 13 13 12 12 11 11 10 10 9 9 9 9 9
9 9 9 10 11 12 12 12 12 12 12 12 12 12 14 13 13 14 16 16 16 16 17 17 17 16 16 15 15 14 14 13 12 12 12 11 11 10 9 9 9 8 8 8
8 8 9 10 11 11 12 12 12 13 13 12 12 12 13 14 14 14 15 15 15 16 17 17 17 16 16 15 15 14 13 13 12 12 11 11 10 9 9 9 8 8 8 8
7 8 9 9 10 10 11 12 13 12 13 13 13 14 13 13 12 13 15 16 16 17 17 17 17 16 16 16 15 14 14 13 12 11 11 10 10 9 9 8 8 8 7 7
7 7 8 8 9 9 11 12 13 13 13 13 13 13 13 14 16 17 18 17 17 18 17 17 17 16 16 15 14 14 13 12 11 11 10 10 9 9 8 8 7 7 7 7
7 7 7 8 9 9 10 11 12 12 12 13 13 13 13 15 14 15 17 18 18 18 18 17 17 16 16 15 14 13 12 12 11 11 10 9 9 8 8 7 7 7 6 6
8 8 7 7 8 9 11 12 12 12 12 13 13 13 12 12 12 13 17 17 17 17 17 17 16 15 15 14 14 13 12 12 11 10 10 9 8 8 7 7 6 6 6 5
7 7 7 7 8 9 11 11 12 11 12 13 13 14 13 12 15 16 17 17 17 17 16 16 15 15 14 14 13 13 12 11 11 10 9 8 8 7 7 6 6 5 5 4
7 7 7 7 7 9 10 10 12 12 14 15 15 15 14 15 16 16 16 16 16 16 15 15 15 14 14 13 13 12 11 11 10 9 9 8 7 7 6 5 5 4 4 4
7 8 8 8 9 10 11 11 13 15 15 15 16 16 15 15 15 15 16 16 15 15 15 14 14 13 13 12 12 11 11 10 9 9 8 7 7 6 5 5 4 4 3 3
6 7 7 7 8 10 11 12 13 14 15 16 16 16 16 15 15 15 15 15 14 14 14 13 13 12 12 11 11 10 10 9 9 8 7 7 6 5 4 4 3 3 3 2
6 6 6 7 8 9 11 12 14 14 15 15 15 16 16 16 15 15 15 14 14 14 13 12 12 12 11 11 10 9 9 9 8 7 6 6 5 4 4 3 3 2 2 2
5 6 7 8 9 9 10 13 13 14 14 15 15 15 15 16 16 15 14 14 13 13 12 12 11 11 11 10 9 9 8 8 7 6 6 5 4 4 3 3 2 2 1 1
Wind_Speed
8 7 13 16 15 9 7 7 7 7 5 7 10 13 15 12 9 12 12 11 12 14 13 11 11 12 13 14 16 19 18 17 15 13 12 11 10 9 8 9 15 16 16 15
6 16 17 11 10 9 8 8 7 5 3 6 9 13 13 11 10 12 13 13 13 11 9 8 9 10 13 16 17 18 19 18 18 15 12 9 8 6 7 7 11 16 16 15
17 9 11 11 10 12 12 11 10 6 3 3 4 9 9 8 7 8 9 10 10 12 12 9 9 10 11 14 17 18 18 17 16 13 9 7 5 4 5 7 8 10 15 15
15 9 13 13 14 14 14 11 10 8 4 5 2 6 9 7 8 8 9 9 10 9 9 8 9 10 11 12 13 14 15 15 14 14 14 14 10 8 8 7 7 8 13 14
12 13 14 17 17 15 9 8 9 7 6 5 4 5 9 6 8 11 10 10 9 9 9 9 10 10 9 9 10 11 13 13 13 15 16 15 10 7 5 6 8 8 8 11
11 9 13 12 11 13 8 5 3 2 3 7 9 8 8 7 10 9 9 10 9 8 7 7 6 6 6 7 8 10 12 12 13 15 15 15 13 11 10 9 10 8 6 6
11 11 9 8 9 9 10 8 4 3 4 8 7 7 10 11 11 12 12 11 9 8 8 7 8 8 8 8 9 10 12 12 13 14 14 14 14 14 14 12 11 9 7 6
14 14 14 11 12 11 13 14 10 9 7 5 5 10 9 10 9 8 8 8 7 8 8 9 9 9 9 10 10 10 12 11 12 13 13 12 12 11 10 11 10 11 9 8
14 11 8 11 9 14 12 12 9 6 4 3 6 7 8 3 4 6 7 8 9 9 9 9 8 9 9 10 10 11 11 10 11 12 11 11 12 11 10 10 9 8 8 7
7 7 8 10 7 8 12 11 7 7 8 6 6 6 6 8 9 9 9 10 10 9 8 8 8 9 8 9 8 8 9 10 10 10 10 9 10 10 10 9 10 9 9 9
6 7 7 10 13 15 9 10 8 8 6 7 6 8 8 12 13 13 12 11 11 11 10 9 8 8 8 7 8 8 8 8 8 9 9 9 9 9 9 9 10 10 9 10
6 5 7 10 8 12 10 12 11 11 8 7 5 8 7 9 11 12 12 11 10 10 9 8 8 7 7 8 8 9 9 9 9 9 9 9 8 8 9 9 9 9 10 10
7 5 7 4 4 8 11 11 12 10 6 7 8 8 4 3 6 9 10 11 10 9 8 7 7 8 9 9 9 9 9 9 8 8 9 8 8 9 9 9 9 9 9 9
7 6 9 15 10 11 12 12 14 11 10 10 12 9 5 5 7 8 9 10 9 9 9 9 8 8 9 9 9 9 8 8 9 9 9 9 9 9 9 8 8 8 9 9
4 8 8 6 5 10 10 14 17 18 17 14 14 14 11 11 11 11 10 9 8 8 9 10 10 9 8 9 9 9 8 8 9 9 9 9 8 7 7 7 7 7 8 8
4 7 7 8 7 9 9 16 20 22 20 16 11 13 10 9 8 8 9 10 11 11 11 11 11 10 10 10 10 9 9 9 9 9 9 7 7 7 7 7 7 7 7 6
7 5 8 9 7 4 13 19 22 18 16 18 21 20 7 9 12 13 13 12 13 13 12 12 12 12 11 11 11 11 10 9 9 9 8 8 8 8 7 7 7 7 7 6
9 8 5 5 7 12 12 10 13 18 17 19 17 12 13 15 14 12 13 14 14 13 12 12 11 10 9 8 8 8 8 9 9 8 8 8 8 8 7 7 7 6 5 5
13 10 5 5 9 9 8 8 14 16 18 18 19 15 12 10 6 8 11 12 14 14 12 11 10 9 9 9 10 10 9 9 9 9 8 8 8 8 7 7 6 4 4 4
12 11 7 5 7 12 10 7 8 9 14 15 18 18 14 11 10 12 9 10 10 9 9 9 8 8 9 9 10 11 10 9 9 9 8 8 8 8 8 7 5 4 4 4
9 10 12 8 7 9 8 6 12 12 13 9 17 18 16 17 16 9 10 9 9 9 9 10 10 9 9 10 11 11 9 9 8 8 8 7 7 7 7 6 4 5 4 4
7 8 10 9 8 10 5 9 13 8 4 5 10 14 15 15 10 9 11 10 11 10 9 10 10 9 8 10 12 11 9 7 8 9 8 7 7 6 6 6 5 5 5 4
8 8 6 9 9 5 5 8 7 4 5 5 6 7 10 10 9 9 10 11 11 11 11 9 11 10 8 8 10 11 8 9 10 9 8 7 7 6 6 6 6 4 4 3
5 4 4 5 8 8 7 7 5 5 5 5 4 5 9 10 11 11 11 11 11 10 10 10 12 12 9 7 8 9 10 10 10 10 8 7 7 6 5 4 4 4 3 3
6 5 5 7 8 7 9 9 7 5 2 1 2 4 9 12 11 11 12 12 11 10 9 10 12 12 10 9 9 9 10 11 10 9 8 7 6 6 5 4 3 3 3 3
9 10 10 9 8 7 10 10 7 6 6 6 5 4 6 10 13 12 11 11 11 12 11 11 11 11 10 10 10 9 9 11 11 9 7 6 5 5 4 4 3 3 2 1
Wind_Direction
184 174 205 205 200 195 187 194 223 240 230 190 224 243 254 257 248 247 246 242 240 240 240 228 210 199 192 187 186 185 183 180 176 178 179 180 185 185 185 185 186 185 182 180
182 213 211 197 197 204 215 226 237 267 249 209 240 254 256 253 242 237 236 235 235 239 247 230 206 188 187 186 185 184 183 181 182 185 183 181 172 176 182 180 185 186 182 179
204 209 188 188 197 203 217 216 222 229 288 304 281 285 271 267 249 248 237 229 227 225 226 219 199 192 185 186 185 185 185 182 182 173 161 144 135 136 167 185 188 188 184 181
214 209 182 193 204 195 221 212 205 210 216 262 218 276 275 261 270 256 244 234 227 223 214 206 196 190 188 190 184 181 180 178 176 169 172 172 178 182 186 180 182 181 182 180
212 197 191 201 206 192 204 189 192 199 196 250 245 239 274 266 254 250 239 232 227 219 204 199 196 190 183 177 175 176 174 175 174 175 177 180 182 177 158 161 171 178 180 180
217 209 201 203 202 190 168 131 121 84 138 241 222 207 267 232 226 236 231 228 223 209 195 189 180 164 161 162 165 167 170 175 175 177 178 182 178 168 164 172 180 181 179 181
215 226 218 187 176 178 163 147 164 200 214 239 203 204 247 237 230 219 217 219 215 200 181 176 170 168 166 165 167 168 170 175 177 178 181 184 180 177 180 180 184 181 182 189
193 213 211 198 187 181 185 172 179 191 204 242 198 221 247 247 237 224 211 203 194 191 187 186 186 179 175 173 170 170 174 175 177 181 183 181 179 182 186 184 184 188 193 193
191 211 195 199 177 162 173 191 170 147 176 209 243 261 291 247 210 200 195 185 192 197 195 193 189 183 180 179 179 177 176 176 180 181 179 180 181 181 183 183 183 188 188 183
167 194 200 188 156 183 173 161 148 164 175 216 254 245 231 216 210 207 203 200 205 202 198 195 191 189 187 183 179 177 177 180 180 179 181 183 183 183 179 180 186 187 185 179
182 179 191 179 187 183 163 171 165 166 178 179 223 251 219 210 204 202 208 207 201 198 198 197 195 191 184 178 176 179 181 177 178 180 180 179 181 180 178 185 190 188 184 180
200 170 195 209 217 186 173 178 165 182 201 187 192 256 252 222 205 196 203 205 201 197 194 191 187 181 181 183 183 184 184 183 182 179 177 179 178 176 181 188 188 183 183 183
194 175 171 191 210 195 193 188 183 174 158 177 192 248 283 213 198 197 192 193 193 191 188 184 183 186 189 190 187 187 188 187 180 173 173 175 177 179 185 187 182 180 180 179
195 193 200 202 201 180 193 197 187 175 197 205 213 220 232 205 202 204 200 194 190 189 186 185 191 196 194 191 189 187 189 183 175 171 173 180 184 184 182 178 176 178 176 177
191 208 217 233 200 174 196 200 196 203 205 205 218 215 217 213 206 204 202 195 190 195 196 195 195 197 194 191 190 186 184 179 173 171 177 184 179 171 167 168 171 171 174 179
198 209 208 224 211 195 206 209 207 213 213 218 224 232 221 218 212 212 207 195 197 204 205 201 196 192 193 191 188 183 181 177 169 173 178 170 162 161 166 168 165 165 169 169
201 193 194 213 209 194 227 211 206 213 215 210 224 230 194 202 207 210 209 202 203 206 203 197 196 196 194 191 183 181 176 164 164 169 167 163 162 164 167 163 161 168 171 169
206 201 198 186 179 215 232 203 200 211 219 213 219 219 203 213 216 215 205 200 206 204 199 197 193 190 187 178 170 162 152 155 159 161 162 161 162 164 161 159 166 167 164 172
200 191 184 184 202 239 267 210 192 201 228 218 220 220 211 203 205 238 221 205 203 200 193 191 186 179 169 164 158 147 148 152 156 162 164 163 160 158 157 162 165 160 158 168
189 187 185 183 197 222 228 201 181 179 242 222 211 217 206 171 210 234 207 195 196 185 175 168 159 151 153 157 148 146 152 156 166 167 161 155 154 156 161 163 157 149 156 165
179 186 194 200 215 246 238 184 143 183 232 213 203 210 195 198 217 206 170 176 174 167 160 152 146 150 156 149 144 147 152 165 160 142 137 139 145 149 149 143 139 138 135 134
183 184 191 189 206 236 220 151 179 214 219 206 200 203 197 205 202 172 166 165 157 150 145 143 140 139 139 143 143 145 154 147 130 128 129 131 132 132 131 129 126 128 130 132
197 196 191 203 219 247 206 208 225 200 205 212 202 200 184 181 181 171 166 159 156 151 146 140 137 132 132 142 144 146 146 135 128 125 126 124 119 114 123 130 129 123 124 135
235 196 193 232 245 251 251 261 246 220 220 214 196 183 168 170 167 160 155 153 150 145 143 139 137 138 140 138 133 136 137 133 128 128 126 124 121 114 110 114 128 134 145 152
221 198 214 241 258 262 253 235 227 227 230 183 161 176 172 156 158 159 157 157 154 147 143 144 146 146 144 137 130 131 134 130 126 125 124 121 119 122 116 110 125 142 173 178
219 210 209 230 230 228 248 246 230 208 210 195 171 161 169 163 159 156 157 156 153 149 145 142 141 140 139 136 132 133 134 133 132 131 130 128 125 121 120 116 78 53 66 61
Height
1475 1481 1481 1479 1481 1484 1487 1490 1491 1486 1481 1484 1486 1483 1477 1473 1474 1473 1471 1472 1472 1473 1475 1477 1479 1482 1484 1487 1490 1493 1496 1500 1504 1508 1511 1514 1517 1521 1524 1527 1530 1532 1534 1536
1475 1473 1468 1473 1478 1482 1485 1488 1488 1484 1479 1482 1484 1481 1473 1469 1467 1465 1464 1464 1465 1467 1468 1470 1472 1475 1477 1480 1483 1487 1491 1495 1498 1502 1506 1510 1514 1517 1521 1524 1526 1529 1531 1533
1464 1461 1465 1471 1475 1480 1482 1485 1485 1485 1480 1479 1482 1480 1472 1464 1461 1459 1458 1458 1459 1460 1461 1463 1465 1468 1471 1474 1478 1481 1485 1489 1494 1498 1502 1507 1511 1515 1517 1519 1522 1525 1527 1530
1459 1457 1460 1465 1469 1473 1477 1474 1478 1481 1486 1489 1485 1492 1474 1464 1459 1456 1454 1453 1453 1454 1456 1458 1460 1462 1465 1469 1473 1477 1481 1485 1489 1493 1497 1500 1503 1506 1509 1514 1518 1521 1524 1526
1452 1452 1455 1459 1459 1464 1468 1468 1474 1478 1484 1489 1487 1490 1475 1463 1459 1452 1449 1448 1448 1449 1451 1453 1455 1458 1461 1465 1469 1473 1477 1481 1485 1488 1492 1496 1499 1503 1507 1511 1514 1517 1520 1522
1446 1446 1447 1449 1452 1458 1463 1469 1475 1482 1487 1494 1485 1489 1476 1462 1452 1446 1444 1444 1444 1446 1447 1449 1452 1455 1458 1461 1465 1469 1472 1476 1480 1484 1487 1491 1495 1499 1502 1506 1510 1513 1516 1518
1444 1442 1441 1443 1451 1456 1460 1473 1487 1490 1495 1490 1478 1480 1466 1448 1441 1439 1439 1439 1441 1442 1444 1446 1449 1452 1455 1458 1461 1464 1468 1471 1475 1479 1483 1487 1491 1494 1498 1502 1505 1508 1511 1513
1441 1441 1436 1436 1440 1448 1453 1460 1476 1485 1489 1483 1474 1473 1453 1438 1434 1434 1435 1436 1438 1440 1442 1444 1446 1449 1452 1454 1457 1461 1464 1467 1471 1475 1479 1483 1487 1490 1494 1497 1501 1504 1507 1509
1431 1433 1427 1427 1429 1437 1449 1453 1456 1470 1475 1477 1472 1460 1446 1434 1433 1433 1434 1435 1436 1437 1440 1442 1444 1446 1449 1451 1454 1457 1460 1464 1467 1471 1475 1479 1483 1486 1490 1493 1497 1500 1503 1506
1420 1429 1424 1423 1426 1430 1435 1444 1456 1466 1477 1478 1468 1460 1449 1436 1434 1433 1433 1432 1433 1435 1438 1440 1442 1444 1447 1449 1452 1455 1457 1460 1464 1467 1471 1475 1479 1482 1486 1489 1492 1495 1499 1501
1415 1422 1424 1421 1422 1427 1434 1440 1444 1456 1463 1470 1471 1455 1429 1426 1425 1427 1428 1428 1430 1432 1435 1437 1440 1442 1445 1447 1449 1452 1454 1457 1461 1464 1468 1471 1475 1479 1482 1485 1488 1491 1494 1497
1412 1417 1421 1418 1414 1414 1421 1427 1436 1448 1456 1457 1460 1446 1417 1417 1417 1420 1423 1425 1427 1430 1433 1436 1438 1440 1442 1444 1446 1449 1451 1454 1457 1461 1464 1468 1471 1474 1477 1480 1484 1487 1490 1492
1411 1414 1420 1423 1421 1417 1417 1420 1424 1431 1443 1452 1453 1439 1415 1415 1416 1417 1419 1422 1424 1428 1431 1433 1435 1437 1439 1441 1444 1446 1448 1451 1454 1458 1461 1464 1467 1470 1473 1476 1480 1483 1485 1488
1406 1409 1409 1408 1404 1408 1414 1416 1417 1426 1434 1440 1436 1427 1417 1416 1416 1416 1417 1419 1422 1425 1428 1430 1432 1435 1437 1439 1441 1443 1446 1449 1451 1454 1457 1460 1463 1466 1469 1473 1476 1478 1481 1483
1402 1404 1404 1402 1400 1401 1404 1407 1411 1413 1414 1423 1420 1420 1414 1412 1412 1412 1414 1417 1420 1422 1425 1427 1429 1431 1433 1436 1438 1440 1443 1446 1448 1451 1454 1457 1460 1463 1466 1469 1472 1475 1477 1479
1401 1401 1401 1400 1398 1397 1399 1399 1402 1403 1405 1410 1412 1411 1405 1405 1408 1410 1412 1414 1416 1418 1420 1423 1426 1428 1430 1432 1434 1437 1440 1442 1445 1448 1451 1454 1457 1460 1463 1466 1468 1471 1473 1475
1399 1400 1400 1400 1398 1399 1399 1388 1391 1394 1394 1399 1402 1397 1401 1403 1404 1405 1407 1409 1411 1413 1416 1419 1421 1424 1426 1429 1431 1434 1437 1440 1442 1445 1448 1451 1454 1457 1459 1462 1465 1467 1469 1471
1395 1398 1399 1398 1400 1401 1381 1375 1379 1384 1384 1386 1387 1388 1392 1394 1396 1398 1400 1403 1406 1409 1412 1415 1418 1420 1423 1426 1429 1432 1434 1437 1440 1442 1445 1448 1451 1454 1456 1459 1461 1463 1465 1467
1385 1392 1397 1396 1393 1388 1378 1372 1373 1378 1378 1376 1379 1381 1385 1388 1392 1393 1394 1397 1400 1403 1407 1410 1413 1417 1420 1422 1425 1428 1431 1434 1437 1440 1442 1445 1448 1451 1453 1455 1458 1460 1462 1463
1378 1382 1390 1393 1390 1383 1367 1363 1364 1373 1375 1365 1369 1373 1378 1384 1392 1385 1387 1392 1395 1399 1402 1406 1410 1413 1416 1419 1422 1425 1428 1431 1434 1437 1440 1443 1445 1448 1450 1452 1454 1456 1458 1459
1374 1376 1381 1386 1383 1371 1359 1356 1361 1376 1363 1355 1358 1362 1368 1373 1372 1376 1382 1386 1390 1394 1398 1402 1406 1409 1413 1416 1419 1422 1425 1428 1432 1435 1438 1440 1443 1445 1447 1449 1451 1453 1454 1456
1368 1370 1373 1376 1377 1368 1351 1354 1356 1353 1351 1350 1351 1353 1358 1361 1365 1371 1376 1380 1385 1389 1394 1398 1402 1406 1410 1413 1417 1420 1423 1427 1430 1433 1435 1438 1440 1442 1444 1446 1448 1449 1451 1452
1361 1359 1359 1359 1355 1347 1345 1345 1345 1347 1347 1347 1348 1349 1353 1356 1360 1365 1370 1375 1380 1385 1390 1394 1399 1403 1407 1411 1415 1418 1422 1425 1428 1431 1433 1436 1438 1440 1442 1444 1445 1446 1447 1448
1355 1353 1356 1355 1348 1344 1342 1341 1342 1344 1345 1345 1346 1348 1350 1353 1356 1361 1366 1371 1377 1382 1387 1391 1396 1400 1405 1409 1413 1417 1420 1423 1426 1429 1431 1434 1436 1438 1440 1441 1442 1443 1444 1444
1350 1352 1352 1350 1344 1341 1338 1339 1340 1342 1343 1344 1345 1347 1348 1351 1354 1358 1363 1368 1374 1379 1384 1389 1394 1398 1403 1407 1411 1415 1419 1422 1424 1427 1429 1432 1434 1435 1437 1439 1440 1440 1441 1441
1343 1344 1345 1342 1338 1339 1335 1335 1338 1339 1341 1342 1344 1346 1348 1350 1353 1357 1361 1367 1372 1377 1382 1387 1392 1397 1402 1406 1410 1414 1417 1420 1423 1425 1427 1429 1431 1433 1435 1436 1437 1437 1438 1438